Location: ČR
(50.0000°N, 15.0000°E)
Time: 13:36:55
(UTC+00:00)

Explorer 7 - Visible Passes

Search period start: 25 October 2021 00:00
Search period end: 04 November 2021 00:00
Orbit: 484 x 676 km, 50.3° (Epoch: 24 October)

Date Brightness Start Highest point End Pass type
(mag) Time Alt. Az. Time Alt. Az. Time Alt. Az.
28 Oct 9.1 17:50:52 10° S 17:51:20 12° S 17:51:20 12° S visible
29 Oct 8.6 17:54:13 10° SSW 17:55:46 19° S 17:55:46 19° S visible
30 Oct 8.2 17:57:53 10° SW 18:00:05 27° S 18:00:05 27° S visible
31 Oct 8.8 16:24:09 10° SSE 16:25:49 12° SE 16:27:32 10° ESE visible
31 Oct 7.8 18:01:44 10° SW 18:04:19 35° SSW 18:04:19 35° SSW visible
01 Nov 8.4 16:27:00 10° S 16:29:42 18° SE 16:32:11 11° E visible
01 Nov 7.6 18:05:43 10° WSW 18:08:28 42° SW 18:08:28 42° SW visible
02 Nov 8.0 16:30:24 10° SSW 16:33:38 26° SE 16:36:17 14° E visible
02 Nov 7.6 18:09:47 10° WSW 18:12:33 44° WSW 18:12:33 44° WSW visible
03 Nov 7.5 16:34:05 10° SW 16:37:37 36° SSE 16:40:18 16° E visible
03 Nov 7.8 18:13:55 10° W 18:16:34 42° WSW 18:16:34 42° WSW visible
